Hourly Data Report for October 09, 2015

All times are specified in Local Standard Time (LST). Add 1 hour to adjust for Daylight Saving Time where and when it is observed.

FREDERICTON
NEW BRUNSWICK

45°52'08.000" N
66°32'14.000" W
20.70 m
8101505
71700
YFC

Download Data

Hourly Data (October 2015)
Hourly Data Report for October 9, 2015
Temp Definition
°C
Dew Point Temp Definition
°C
Rel Hum Definition
%
Wind Dir Definition
10's deg

Wind Spd Definition
km/h
Visibility Definition
km
Stn Press Definition
kPa
Hmdx Definition


Wind Chill Definition


Weather Definition


TIME
00:00 Legend Double Dagger 3.6 1.8 88 22 8 16.1 101.76     LegendNANA
01:00 Legend Double Dagger 3.9 1.3 83 26 9 16.1 101.78     LegendNANA
02:00 Legend Double Dagger 3.2 1.9 91 23 5 16.1 101.74     LegendNANA
03:00 Legend Double Dagger 3.1 2.1 93 22 9 16.1 101.73     LegendNANA
04:00 Legend Double Dagger 2.9 1.5 91 19 8 16.1 101.67     LegendNANA
05:00 Legend Double Dagger 1.9 1.2 95 21 8 16.1 101.66     LegendNANA
06:00 Legend Double Dagger 1.0 0.6 97 21 8 16.1 101.63     LegendNANA
07:00 Legend Double Dagger 1.2 0.8 97 21 8 16.1 101.67     LegendNANA
08:00 Legend Double Dagger 2.6 1.6 93 20 5 16.1 101.69     LegendNANA
09:00 Legend Double Dagger 3.9 2.4 90 20 4 16.1 101.71     LegendNANA
10:00 Legend Double Dagger 5.4 2.8 84 19 5 16.1 101.60     LegendNANA
11:00 Legend Double Dagger 6.2 3.2 81   0 16.1 101.51     LegendNANA
12:00 Legend Double Dagger 6.7 1.7 70   0 16.1 101.42     Rain
13:00 Legend Double Dagger 8.8 3.4 69 6 9 16.1 101.24     LegendNANA
14:00 Legend Double Dagger 9.6 3.1 64 10 15 16.1 101.11     LegendNANA
15:00 Legend Double Dagger 9.1 4.8 74 8 13 16.1 101.00     Rain
16:00 Legend Double Dagger 8.5 6.0 84 9 13 14.5 100.85     Rain
17:00 Legend Double Dagger 8.3 7.2 93 10 13 6.4 100.72     Moderate Rain,Fog
18:00 Legend Double Dagger 8.6 7.7 94 13 8 4.8 100.63     Moderate Rain,Fog
19:00 Legend Double Dagger 8.8 8.1 95 11 11 9.7 100.48     Rain,Fog
20:00 Legend Double Dagger 9.1 8.2 94 14 15 14.5 100.33     Rain
21:00 Legend Double Dagger 9.4 8.3 93 17 15 8.1 100.17     Rain,Fog
22:00 Legend Double Dagger 9.7 8.8 94 18 11 12.9 100.04     Rain
23:00 Legend Double Dagger 10.3 9.5 95 20 13 6.4 99.93     Rain,Fog

Notes on Data Quality.

Legend

  • E = Estimated
  • M = Missing
  • NA = Not Available
  • ‡ = Partner data that is not subject to review by the National Climate Archives
Date modified: